QPF
0.00 0.00 0.00 0.00 0.00 0.00 0.00 0.00 0.00 0.01 0.00 0.00 0.00 0.00 0.00 0.00 0.00 0.00 0.00 0.00 0.00 0.00 0.00 0.00 0.00 0.00 0.00 0.00 0.01 0.01 0.01 0.02 0.03 0.03 0.03 0.03 0.03 0.02
0.00 0.00 0.00 0.00 0.00 0.00 0.00 0.00 0.00 0.00 0.00 0.00 0.00 0.00 0.00 0.00 0.00 0.00 0.00 0.00 0.00 0.00 0.00 0.00 0.00 0.01 0.01 0.01 0.01 0.01 0.01 0.02 0.02 0.03 0.03 0.03 0.02 0.02
0.00 0.00 0.00 0.00 0.00 0.00 0.00 0.00 0.00 0.00 0.00 0.00 0.00 0.00 0.00 0.00 0.00 0.00 0.00 0.00 0.00 0.00 0.00 0.01 0.01 0.01 0.02 0.02 0.02 0.02 0.02 0.03 0.03 0.04 0.04 0.03 0.03 0.02
0.00 0.00 0.00 0.00 0.00 0.00 0.00 0.00 0.00 0.00 0.00 0.00 0.00 0.00 0.00 0.00 0.00 0.00 0.00 0.00 0.00 0.00 0.00 0.01 0.01 0.02 0.02 0.02 0.02 0.02 0.02 0.02 0.03 0.04 0.04 0.05 0.05 0.04
0.00 0.00 0.00 0.00 0.00 0.00 0.00 0.00 0.00 0.00 0.00 0.00 0.00 0.00 0.00 0.00 0.00 0.00 0.00 0.00 0.00 0.00 0.00 0.00 0.01 0.02 0.02 0.02 0.02 0.02 0.02 0.01 0.01 0.02 0.03 0.03 0.04 0.04
0.00 0.00 0.00 0.00 0.00 0.00 0.00 0.00 0.00 0.00 0.01 0.01 0.01 0.01 0.01 0.00 0.00 0.00 0.00 0.00 0.00 0.00 0.00 0.00 0.01 0.01 0.01 0.01 0.01 0.02 0.02 0.02 0.02 0.01 0.01 0.01 0.02 0.02
0.00 0.00 0.00 0.00 0.00 0.00 0.01 0.01 0.01 0.01 0.02 0.02 0.02 0.02 0.01 0.01 0.01 0.01 0.01 0.01 0.00 0.00 0.00 0.00 0.00 0.00 0.00 0.01 0.01 0.01 0.01 0.02 0.02 0.02 0.02 0.01 0.01 0.01
0.00 0.00 0.00 0.00 0.00 0.00 0.00 0.01 0.03 0.03 0.03 0.03 0.03 0.03 0.02 0.01 0.01 0.01 0.02 0.02 0.02 0.01 0.01 0.01 0.00 0.00 0.00 0.00 0.00 0.00 0.00 0.01 0.01 0.01 0.01 0.01 0.00 0.00
0.00 0.00 0.00 0.00 0.00 0.00 0.00 0.00 0.01 0.01 0.02 0.03 0.03 0.03 0.02 0.02 0.03 0.04 0.04 0.04 0.03 0.02 0.03 0.03 0.01 0.01 0.01 0.01 0.01 0.01 0.00 0.00 0.01 0.01 0.01 0.00 0.00 0.00
0.00 0.00 0.00 0.00 0.00 0.01 0.00 0.00 0.00 0.00 0.01 0.01 0.02 0.02 0.03 0.03 0.04 0.06 0.06 0.05 0.03 0.02 0.03 0.05 0.02 0.01 0.01 0.01 0.01 0.01 0.01 0.01 0.01 0.01 0.01 0.01 0.01 0.00
0.00 0.00 0.00 0.00 0.01 0.01 0.01 0.01 0.01 0.00 0.01 0.02 0.02 0.04 0.05 0.05 0.07 0.07 0.08 0.07 0.04 0.02 0.03 0.05 0.05 0.03 0.02 0.02 0.02 0.03 0.02 0.02 0.02 0.02 0.02 0.01 0.01 0.01
0.00 0.00 0.00 0.01 0.01 0.01 0.01 0.01 0.02 0.01 0.01 0.01 0.02 0.03 0.04 0.05 0.07 0.07 0.07 0.07 0.05 0.04 0.04 0.06 0.05 0.05 0.04 0.02 0.02 0.03 0.03 0.03 0.03 0.02 0.02 0.03 0.03 0.02
0.00 0.00 0.00 0.01 0.01 0.00 0.01 0.01 0.02 0.02 0.02 0.02 0.03 0.03 0.04 0.04 0.05 0.05 0.05 0.06 0.07 0.07 0.06 0.06 0.05 0.04 0.04 0.03 0.02 0.02 0.02 0.02 0.02 0.02 0.02 0.02 0.03 0.03
0.01 0.01 0.01 0.01 0.01 0.01 0.01 0.01 0.02 0.02 0.02 0.03 0.04 0.04 0.05 0.05 0.05 0.05 0.04 0.05 0.06 0.07 0.07 0.07 0.07 0.06 0.05 0.04 0.03 0.02 0.02 0.03 0.03 0.02 0.02 0.02 0.02 0.02
0.01 0.01 0.01 0.01 0.01 0.01 0.01 0.02 0.02 0.02 0.04 0.05 0.05 0.05 0.06 0.05 0.04 0.03 0.03 0.03 0.04 0.05 0.06 0.07 0.07 0.07 0.07 0.06 0.05 0.04 0.03 0.04 0.04 0.04 0.03 0.02 0.02 0.02
0.00 0.01 0.01 0.01 0.01 0.01 0.01 0.02 0.03 0.03 0.05 0.05 0.04 0.04 0.04 0.03 0.03 0.03 0.02 0.02 0.03 0.04 0.05 0.06 0.06 0.06 0.07 0.06 0.06 0.06 0.06 0.06 0.06 0.06 0.06 0.05 0.03 0.02
0.00 0.00 0.01 0.01 0.01 0.01 0.01 0.02 0.03 0.03 0.04 0.03 0.03 0.02 0.02 0.02 0.02 0.02 0.02 0.02 0.03 0.03 0.04 0.05 0.05 0.04 0.04 0.04 0.06 0.08 0.08 0.09 0.09 0.09 0.09 0.09 0.07 0.04
0.01 0.01 0.01 0.02 0.02 0.02 0.02 0.03 0.04 0.04 0.03 0.02 0.02 0.02 0.01 0.02 0.02 0.02 0.02 0.02 0.02 0.03 0.04 0.04 0.04 0.03 0.03 0.03 0.08 0.10 0.10 0.13 0.14 0.12 0.10 0.10 0.10 0.07
0.01 0.01 0.02 0.03 0.03 0.02 0.03 0.04 0.05 0.04 0.03 0.02 0.02 0.02 0.01 0.01 0.01 0.02 0.02 0.02 0.02 0.02 0.02 0.02 0.02 0.01 0.02 0.05 0.09 0.15 0.15 0.14 0.14 0.13 0.11 0.10 0.11 0.11
0.01 0.02 0.02 0.03 0.03 0.03 0.03 0.03 0.03 0.02 0.02 0.02 0.02 0.02 0.02 0.01 0.01 0.01 0.02 0.02 0.02 0.01 0.01 0.01 0.02 0.02 0.02 0.05 0.12 0.18 0.17 0.11 0.08 0.10 0.11 0.10 0.14 0.15
0.01 0.02 0.02 0.02 0.03 0.03 0.03 0.02 0.02 0.01 0.01 0.01 0.01 0.02 0.02 0.02 0.01 0.01 0.01 0.02 0.01 0.01 0.02 0.02 0.03 0.03 0.01 0.01 0.06 0.13 0.17 0.17 0.11 0.07 0.07 0.08 0.09 0.07
0.02 0.02 0.02 0.02 0.02 0.02 0.02 0.01 0.01 0.01 0.01 0.01 0.01 0.01 0.01 0.01 0.01 0.01 0.01 0.01 0.01 0.02 0.02 0.02 0.02 0.01 0.01 0.01 0.06 0.12 0.15 0.15 0.14 0.13 0.11 0.06 0.03 0.04
0.02 0.02 0.02 0.01 0.01 0.01 0.01 0.01 0.01 0.00 0.00 0.00 0.00 0.00 0.00 0.00 0.01 0.00 0.00 0.00 0.00 0.01 0.01 0.01 0.01 0.01 0.01 0.01 0.03 0.05 0.06 0.05 0.04 0.06 0.10 0.08 0.04 0.05
MSLP
1021.49 1021.58 1021.65 1021.66 1021.61 1021.46 1021.21 1020.87 1020.46 1020.02 1019.57 1019.14 1018.74 1018.38 1018.06 1017.76 1017.48 1017.21 1016.94 1016.67 1016.40 1016.14 1015.90 1015.67 1015.46 1015.25 1015.06 1014.87 1014.68 1014.49 1014.32 1014.18 1014.07 1014.00 1013.98 1014.02 1014.10 1014.23
1021.59 1021.63 1021.65 1021.61 1021.51 1021.31 1021.02 1020.64 1020.20 1019.72 1019.24 1018.77 1018.33 1017.92 1017.55 1017.21 1016.89 1016.57 1016.27 1015.97 1015.69 1015.43 1015.19 1014.98 1014.78 1014.60 1014.42 1014.25 1014.06 1013.88 1013.70 1013.53 1013.39 1013.30 1013.26 1013.28 1013.36 1013.50
1021.61 1021.60 1021.58 1021.50 1021.36 1021.12 1020.80 1020.40 1019.93 1019.43 1018.92 1018.42 1017.95 1017.51 1017.10 1016.71 1016.34 1015.98 1015.64 1015.31 1015.00 1014.72 1014.47 1014.25 1014.05 1013.87 1013.70 1013.52 1013.33 1013.14 1012.94 1012.76 1012.61 1012.50 1012.45 1012.48 1012.58 1012.76
1021.56 1021.52 1021.46 1021.34 1021.16 1020.90 1020.55 1020.12 1019.64 1019.12 1018.59 1018.07 1017.57 1017.10 1016.65 1016.22 1015.80 1015.40 1015.01 1014.64 1014.30 1013.98 1013.70 1013.46 1013.24 1013.04 1012.85 1012.66 1012.46 1012.25 1012.04 1011.85 1011.70 1011.59 1011.57 1011.63 1011.78 1012.01
1021.47 1021.39 1021.29 1021.14 1020.92 1020.62 1020.25 1019.80 1019.30 1018.76 1018.22 1017.67 1017.15 1016.64 1016.16 1015.69 1015.23 1014.78 1014.35 1013.94 1013.55 1013.19 1012.87 1012.59 1012.34 1012.10 1011.88 1011.66 1011.44 1011.22 1011.01 1010.83 1010.69 1010.63 1010.64 1010.76 1010.97 1011.27
1021.36 1021.24 1021.09 1020.90 1020.63 1020.30 1019.88 1019.41 1018.88 1018.32 1017.75 1017.19 1016.64 1016.10 1015.58 1015.08 1014.58 1014.10 1013.63 1013.18 1012.75 1012.35 1011.99 1011.66 1011.36 1011.09 1010.83 1010.59 1010.35 1010.12 1009.93 1009.77 1009.68 1009.66 1009.74 1009.93 1010.21 1010.58
1021.23 1021.06 1020.86 1020.60 1020.29 1019.91 1019.45 1018.94 1018.38 1017.80 1017.20 1016.61 1016.04 1015.48 1014.93 1014.40 1013.88 1013.37 1012.87 1012.38 1011.93 1011.50 1011.10 1010.73 1010.39 1010.08 1009.79 1009.53 1009.28 1009.06 1008.89 1008.78 1008.74 1008.79 1008.94 1009.20 1009.55 1009.98
1021.09 1020.85 1020.58 1020.27 1019.90 1019.46 1018.96 1018.40 1017.81 1017.20 1016.58 1015.97 1015.37 1014.80 1014.24 1013.69 1013.16 1012.63 1012.12 1011.62 1011.15 1010.70 1010.27 1009.88 1009.51 1009.18 1008.86 1008.59 1008.34 1008.14 1008.00 1007.93 1007.96 1008.08 1008.30 1008.62 1009.03 1009.49
1020.93 1020.62 1020.28 1019.90 1019.46 1018.97 1018.42 1017.83 1017.21 1016.57 1015.94 1015.32 1014.71 1014.13 1013.57 1013.02 1012.49 1011.97 1011.47 1010.97 1010.50 1010.04 1009.61 1009.20 1008.81 1008.46 1008.14 1007.85 1007.61 1007.43 1007.32 1007.30 1007.38 1007.55 1007.83 1008.20 1008.63 1009.11
1020.74 1020.37 1019.96 1019.51 1019.01 1018.47 1017.88 1017.26 1016.62 1015.98 1015.34 1014.72 1014.12 1013.55 1013.00 1012.47 1011.96 1011.46 1010.98 1010.50 1010.04 1009.59 1009.16 1008.74 1008.35 1007.98 1007.65 1007.36 1007.12 1006.95 1006.87 1006.88 1006.98 1007.20 1007.51 1007.90 1008.34 1008.80
1020.54 1020.10 1019.62 1019.12 1018.58 1018.00 1017.39 1016.76 1016.11 1015.47 1014.85 1014.24 1013.67 1013.12 1012.59 1012.09 1011.61 1011.15 1010.69 1010.25 1009.80 1009.37 1008.94 1008.52 1008.12 1007.74 1007.38 1007.08 1006.83 1006.66 1006.58 1006.59 1006.71 1006.93 1007.25 1007.64 1008.06 1008.50
1020.34 1019.84 1019.32 1018.77 1018.20 1017.60 1016.98 1016.35 1015.72 1015.10 1014.50 1013.92 1013.37 1012.85 1012.36 1011.90 1011.45 1011.02 1010.60 1010.18 1009.75 1009.33 1008.90 1008.48 1008.06 1007.65 1007.27 1006.93 1006.66 1006.46 1006.35 1006.35 1006.45 1006.66 1006.97 1007.34 1007.75 1008.16
1020.15 1019.62 1019.06 1018.49 1017.90 1017.30 1016.69 1016.07 1015.46 1014.86 1014.29 1013.74 1013.22 1012.74 1012.28 1011.85 1011.44 1011.03 1010.64 1010.24 1009.83 1009.41 1008.98 1008.54 1008.09 1007.64 1007.22 1006.84 1006.51 1006.26 1006.11 1006.07 1006.14 1006.32 1006.60 1006.95 1007.35 1007.75
1020.01 1019.46 1018.89 1018.31 1017.72 1017.12 1016.51 1015.91 1015.32 1014.75 1014.20 1013.68 1013.19 1012.73 1012.30 1011.90 1011.51 1011.13 1010.75 1010.37 1009.97 1009.54 1009.10 1008.63 1008.14 1007.65 1007.18 1006.73 1006.34 1006.03 1005.82 1005.72 1005.74 1005.89 1006.13 1006.47 1006.86 1007.26
1019.93 1019.37 1018.81 1018.23 1017.64 1017.05 1016.46 1015.87 1015.30 1014.74 1014.21 1013.70 1013.23 1012.79 1012.38 1011.99 1011.62 1011.25 1010.89 1010.51 1010.11 1009.68 1009.22 1008.72 1008.20 1007.66 1007.13 1006.62 1006.16 1005.78 1005.51 1005.34 1005.31 1005.41 1005.63 1005.95 1006.34 1006.78
1019.92 1019.38 1018.82 1018.25 1017.67 1017.09 1016.51 1015.93 1015.36 1014.82 1014.29 1013.79 1013.32 1012.89 1012.48 1012.10 1011.74 1011.38 1011.03 1010.66 1010.26 1009.83 1009.36 1008.84 1008.29 1007.72 1007.13 1006.57 1006.05 1005.61 1005.27 1005.05 1004.96 1005.02 1005.21 1005.52 1005.92 1006.38
1020.00 1019.47 1018.93 1018.37 1017.81 1017.23 1016.66 1016.08 1015.52 1014.96 1014.43 1013.93 1013.46 1013.02 1012.62 1012.24 1011.89 1011.54 1011.20 1010.85 1010.46 1010.04 1009.57 1009.06 1008.50 1007.90 1007.29 1006.69 1006.13 1005.64 1005.25 1004.98 1004.84 1004.86 1005.02 1005.31 1005.72 1006.20
1020.13 1019.63 1019.12 1018.58 1018.03 1017.47 1016.90 1016.32 1015.75 1015.19 1014.66 1014.15 1013.67 1013.23 1012.82 1012.45 1012.11 1011.78 1011.46 1011.14 1010.78 1010.39 1009.94 1009.45 1008.91 1008.32 1007.71 1007.10 1006.53 1006.01 1005.58 1005.28 1005.10 1005.08 1005.21 1005.48 1005.87 1006.35
1020.33 1019.86 1019.37 1018.86 1018.34 1017.78 1017.22 1016.65 1016.08 1015.51 1014.97 1014.45 1013.97 1013.53 1013.13 1012.77 1012.45 1012.15 1011.86 1011.57 1011.26 1010.91 1010.52 1010.07 1009.57 1009.03 1008.45 1007.86 1007.29 1006.78 1006.34 1006.01 1005.81 1005.75 1005.84 1006.07 1006.42 1006.87
1020.55 1020.13 1019.68 1019.20 1018.69 1018.16 1017.61 1017.05 1016.48 1015.92 1015.38 1014.86 1014.38 1013.95 1013.56 1013.22 1012.92 1012.65 1012.41 1012.17 1011.91 1011.63 1011.30 1010.92 1010.48 1010.00 1009.48 1008.94 1008.41 1007.92 1007.49 1007.16 1006.94 1006.85 1006.89 1007.07 1007.36 1007.75
1020.81 1020.42 1020.00 1019.56 1019.08 1018.57 1018.04 1017.49 1016.93 1016.38 1015.85 1015.34 1014.87 1014.45 1014.08 1013.76 1013.49 1013.26 1013.06 1012.87 1012.67 1012.46 1012.20 1011.90 1011.55 1011.14 1010.70 1010.23 1009.76 1009.31 1008.92 1008.60 1008.37 1008.26 1008.26 1008.38 1008.61 1008.91
1021.07 1020.72 1020.33 1019.92 1019.46 1018.98 1018.47 1017.94 1017.39 1016.86 1016.33 1015.84 1015.38 1014.97 1014.62 1014.32 1014.08 1013.89 1013.72 1013.58 1013.44 1013.29 1013.11 1012.89 1012.62 1012.30 1011.94 1011.56 1011.16 1010.78 1010.43 1010.14 1009.93 1009.81 1009.78 1009.85 1010.01 1010.23
1021.34 1021.01 1020.64 1020.24 1019.81 1019.34 1018.84 1018.33 1017.80 1017.27 1016.76 1016.28 1015.84 1015.45 1015.11 1014.83 1014.61 1014.44 1014.31 1014.20 1014.11 1014.01 1013.89 1013.74 1013.55 1013.32 1013.05 1012.75 1012.44 1012.14 1011.85 1011.61 1011.43 1011.32 1011.28 1011.32 1011.42 1011.58
Thickness
5534 5528 5523 5517 5511 5506 5501 5496 5494 5502 5505 5495 5484 5477 5469 5465 5461 5458 5455 5452 5449 5447 5446 5446 5446 5447 5449 5451 5454 5457 5461 5466 5472 5479 5486 5493 5500 5505
5517 5511 5506 5501 5495 5490 5485 5479 5474 5474 5479 5477 5468 5461 5455 5451 5447 5443 5440 5436 5433 5431 5430 5429 5430 5431 5432 5435 5437 5440 5444 5448 5454 5461 5469 5477 5485 5492
5500 5495 5491 5486 5481 5475 5470 5464 5459 5455 5459 5462 5452 5447 5440 5436 5434 5430 5427 5424 5421 5419 5418 5418 5418 5420 5421 5423 5426 5428 5431 5435 5440 5446 5454 5463 5471 5480
5485 5480 5476 5472 5466 5461 5456 5451 5446 5442 5440 5445 5443 5435 5430 5426 5424 5421 5418 5416 5413 5412 5411 5411 5412 5413 5415 5416 5418 5420 5422 5426 5430 5435 5442 5451 5460 5468
5470 5466 5462 5457 5453 5449 5444 5440 5436 5433 5429 5429 5431 5427 5423 5419 5417 5415 5413 5410 5408 5408 5408 5409 5409 5410 5411 5412 5414 5415 5417 5420 5424 5428 5433 5440 5448 5457
5457 5453 5449 5445 5442 5439 5435 5431 5428 5424 5422 5420 5421 5420 5418 5416 5412 5411 5410 5408 5407 5407 5407 5408 5408 5409 5409 5410 5411 5412 5414 5416 5418 5422 5427 5433 5440 5448
5444 5441 5437 5435 5434 5430 5427 5423 5420 5419 5417 5416 5416 5416 5415 5413 5410 5408 5408 5407 5407 5406 5408 5408 5407 5408 5408 5409 5409 5410 5412 5413 5415 5418 5422 5427 5433 5440
5433 5430 5427 5426 5423 5420 5417 5415 5413 5412 5412 5412 5413 5412 5412 5410 5409 5406 5405 5405 5406 5407 5405 5407 5406 5408 5409 5409 5410 5410 5410 5411 5413 5415 5418 5422 5427 5434
5422 5420 5418 5417 5414 5412 5410 5409 5409 5408 5408 5408 5409 5409 5409 5408 5406 5405 5403 5402 5403 5404 5403 5406 5407 5408 5410 5411 5412 5411 5411 5411 5411 5413 5416 5419 5423 5429
5414 5412 5410 5410 5409 5407 5406 5407 5407 5408 5408 5408 5407 5407 5406 5405 5403 5401 5401 5401 5401 5401 5401 5404 5407 5409 5411 5412 5412 5412 5412 5412 5411 5412 5414 5417 5420 5425
5406 5406 5405 5404 5404 5403 5404 5406 5407 5409 5409 5408 5407 5406 5405 5403 5401 5399 5399 5398 5399 5400 5400 5400 5404 5406 5409 5412 5413 5413 5413 5412 5412 5412 5413 5415 5419 5422
5400 5401 5401 5400 5401 5402 5403 5405 5407 5409 5409 5409 5409 5407 5405 5403 5400 5397 5396 5395 5395 5397 5397 5396 5399 5401 5407 5410 5412 5412 5412 5412 5412 5413 5413 5415 5417 5420
5394 5395 5397 5398 5400 5402 5403 5405 5406 5407 5409 5409 5408 5406 5404 5402 5400 5398 5396 5395 5394 5394 5394 5394 5396 5399 5401 5406 5410 5412 5412 5412 5412 5412 5413 5414 5416 5419
5389 5392 5394 5397 5400 5403 5405 5407 5408 5409 5409 5409 5408 5406 5404 5401 5400 5399 5398 5396 5395 5394 5394 5393 5395 5398 5400 5404 5408 5411 5412 5413 5413 5413 5413 5413 5414 5416
5387 5391 5394 5398 5402 5405 5407 5409 5410 5410 5410 5409 5407 5405 5403 5401 5400 5400 5400 5399 5398 5397 5396 5395 5395 5397 5399 5403 5406 5409 5412 5415 5415 5414 5414 5414 5415 5416
5387 5391 5396 5400 5403 5406 5408 5410 5410 5410 5409 5408 5406 5404 5403 5402 5401 5400 5400 5399 5399 5398 5397 5397 5397 5397 5399 5403 5406 5410 5413 5416 5417 5417 5417 5416 5416 5417
5386 5392 5396 5400 5403 5406 5408 5409 5410 5411 5410 5408 5406 5404 5403 5402 5401 5400 5400 5399 5398 5397 5397 5397 5399 5399 5399 5401 5407 5411 5415 5419 5421 5422 5421 5420 5419 5419
5387 5391 5395 5398 5401 5403 5406 5408 5410 5410 5410 5408 5406 5404 5403 5402 5402 5401 5400 5399 5397 5395 5395 5395 5398 5402 5403 5405 5404 5411 5417 5421 5424 5425 5425 5424 5422 5422
5388 5390 5394 5397 5399 5402 5405 5407 5409 5410 5410 5409 5407 5406 5404 5403 5402 5401 5400 5399 5397 5395 5394 5394 5396 5399 5402 5404 5406 5408 5414 5419 5423 5425 5425 5424 5424 5423
5387 5390 5393 5395 5398 5401 5404 5406 5409 5410 5411 5411 5410 5408 5407 5405 5404 5402 5400 5399 5397 5396 5395 5395 5395 5396 5398 5399 5402 5404 5410 5416 5420 5422 5422 5422 5422 5421
5387 5390 5392 5395 5398 5401 5404 5406 5409 5410 5411 5412 5412 5411 5410 5408 5406 5404 5402 5399 5398 5397 5396 5395 5395 5397 5400 5404 5405 5406 5407 5410 5415 5418 5420 5422 5423 5422
5388 5391 5393 5396 5399 5401 5404 5407 5410 5412 5413 5414 5414 5413 5413 5411 5409 5407 5404 5402 5400 5399 5398 5397 5398 5400 5403 5404 5404 5405 5407 5409 5412 5415 5416 5421 5423 5421
5389 5392 5394 5397 5400 5402 5405 5408 5411 5413 5415 5415 5416 5416 5416 5415 5413 5410 5408 5405 5403 5402 5400 5400 5400 5401 5402 5403 5404 5404 5406 5408 5410 5412 5410 5410 5414 5416